| time (UTC) | temp F | wind direction | speed MPH | gust MPH | rain 1hr in | rain 24hr in | rain mn in | humidity % | barometer mb |
| 20260904032508 | 65 | 355 | 0.0 | 1.0 | 0.00 | 0.01 | 0.01 | 64 | 981.9 |
| 20260904032007 | 65 | 355 | 0.0 | 1.0 | 0.00 | 0.01 | 0.01 | 64 | 981.9 |
| 20260904031506 | 65 | 355 | 0.0 | 1.0 | 0.00 | 0.01 | 0.01 | 64 | 981.8 |
| 20260904031005 | 65 | 355 | 0.0 | 1.0 | 0.00 | 0.01 | 0.01 | 64 | 981.8 |
| 20260904030505 | 65 | 355 | 0.0 | 1.0 | 0.00 | 0.01 | 0.01 | 64 | 981.8 |
| 20260904030005 | 65 | 355 | 0.0 | 1.0 | 0.00 | 0.01 | 0.01 | 64 | 981.8 |
| 20260904025505 | 65 | 355 | 0.0 | 1.0 | 0.00 | 0.01 | 0.01 | 64 | 981.7 |
| 20260904025005 | 65 | 355 | 0.0 | 1.0 | 0.00 | 0.01 | 0.01 | 64 | 981.8 |
| 20260904024505 | 65 | 355 | 0.0 | 1.0 | 0.00 | 0.01 | 0.01 | 64 | 981.7 |
| 20260904024005 | 65 | 355 | 0.0 | 2.0 | 0.00 | 0.01 | 0.01 | 64 | 981.6 |
| 20260904023505 | 65 | 355 | 0.0 | 2.0 | 0.00 | 0.01 | 0.01 | 64 | 981.5 |
| 20260904023004 | 65 | 340 | 0.0 | 2.0 | 0.00 | 0.01 | 0.01 | 64 | 981.5 |
| 20260904022505 | 65 | 340 | 0.0 | 2.0 | 0.00 | 0.01 | 0.01 | 64 | 981.7 |
| 20260904022005 | 65 | 342 | 0.0 | 2.0 | 0.00 | 0.01 | 0.01 | 64 | 981.5 |
| 20260904021503 | 65 | 342 | 0.0 | 1.0 | 0.00 | 0.01 | 0.01 | 64 | 981.2 |
| 20260904021009 | 65 | 342 | 0.0 | 1.0 | 0.00 | 0.01 | 0.01 | 64 | 981.2 |
| 20260904020503 | 65 | 342 | 0.0 | 1.0 | 0.00 | 0.01 | 0.01 | 64 | 981.2 |
| 20260904020004 | 65 | 342 | 0.0 | 1.0 | 0.00 | 0.01 | 0.01 | 64 | 981.1 |
| 20260904015504 | 65 | 342 | 0.0 | 1.0 | 0.00 | 0.01 | 0.01 | 63 | 981.0 |
| 20260904015003 | 65 | 342 | 0.0 | 2.0 | 0.00 | 0.01 | 0.01 | 63 | 981.0 |
| 20260904014503 | 66 | 342 | 0.0 | 2.0 | 0.00 | 0.01 | 0.01 | 63 | 980.8 |
| 20260904014005 | 66 | 342 | 1.0 | 3.0 | 0.00 | 0.01 | 0.01 | 63 | 980.8 |
| 20260904013502 | 66 | 342 | 1.0 | 3.0 | 0.00 | 0.01 | 0.01 | 63 | 980.7 |
| 20260904013005 | 66 | 342 | 1.0 | 3.0 | 0.00 | 0.01 | 0.01 | 62 | 980.6 |
| 20260904012503 | 66 | 338 | 0.0 | 4.0 | 0.00 | 0.01 | 0.01 | 62 | 980.6 |
| 20260904012003 | 66 | 338 | 1.0 | 4.0 | 0.00 | 0.01 | 0.01 | 62 | 980.4 |
| 20260904011502 | 67 | 5 | 0.0 | 3.0 | 0.00 | 0.01 | 0.01 | 62 | 980.3 |
| 20260904011003 | 67 | 46 | 0.0 | 3.0 | 0.00 | 0.01 | 0.01 | 62 | 980.2 |
| 20260904010502 | 67 | 48 | 0.0 | 3.0 | 0.00 | 0.01 | 0.01 | 62 | 980.3 |
| 20260904010002 | 67 | 74 | 0.0 | 3.0 | 0.00 | 0.01 | 0.01 | 62 | 980.3 |
| 20260904005501 | 67 | 30 | 0.0 | 3.0 | 0.00 | 0.01 | 0.01 | 62 | 980.3 |
| 20260904005002 | 67 | 34 | 1.0 | 3.0 | 0.00 | 0.01 | 0.01 | 62 | 980.4 |
| 20260904004501 | 67 | 24 | 0.0 | 3.0 | 0.00 | 0.01 | 0.01 | 63 | 980.3 |
| 20260904004001 | 67 | 37 | 0.0 | 3.0 | 0.00 | 0.01 | 0.01 | 63 | 980.5 |
| 20260904003501 | 67 | 22 | 1.0 | 4.0 | 0.00 | 0.01 | 0.01 | 63 | 980.6 |
| 20260904003001 | 67 | 5 | 0.0 | 4.0 | 0.00 | 0.01 | 0.01 | 63 | 980.6 |
| 20260904002502 | 67 | 9 | 1.0 | 4.0 | 0.00 | 0.01 | 0.01 | 63 | 980.7 |
| 20260904002002 | 67 | 294 | 1.0 | 5.0 | 0.00 | 0.01 | 0.01 | 62 | 980.9 |
| 20260904001607 | 68 | 288 | 2.0 | 6.0 | 0.00 | 0.01 | 0.01 | 62 | 980.6 |
| 20260904001100 | 68 | 300 | 1.0 | 4.0 | 0.00 | 0.01 | 0.01 | 62 | 980.6 |
| 20260904000601 | 68 | 307 | 2.0 | 3.0 | 0.00 | 0.01 | 0.01 | 62 | 980.6 |
| 20260904000109 | 68 | 298 | 0.0 | 3.0 | 0.00 | 0.01 | 0.01 | 61 | 980.6 |
| 20260903235600 | 68 | 291 | 0.0 | 2.0 | 0.00 | 0.01 | 0.01 | 61 | 980.6 |
| 20260903235100 | 68 | 291 | 0.0 | 1.0 | 0.00 | 0.01 | 0.01 | 61 | 980.6 |
| 20260903234600 | 68 | 291 | 0.0 | 2.0 | 0.00 | 0.01 | 0.01 | 61 | 980.5 |
| 20260903234103 | 68 | 292 | 0.0 | 3.0 | 0.00 | 0.01 | 0.01 | 61 | 980.4 |
| 20260903233601 | 69 | 292 | 1.0 | 3.0 | 0.00 | 0.01 | 0.01 | 61 | 980.3 |
| 20260903233103 | 69 | 292 | 1.0 | 3.0 | 0.00 | 0.01 | 0.01 | 61 | 980.1 |
| 20260903232559 | 69 | 360 | 0.0 | 2.0 | 0.00 | 0.01 | 0.01 | 61 | 979.7 |
| 20260903232059 | 69 | 360 | 0.0 | 3.0 | 0.00 | 0.01 | 0.01 | 61 | 979.6 |
| 20260903231559 | 69 | 360 | 0.0 | 3.0 | 0.00 | 0.01 | 0.01 | 61 | 979.7 |
| 20260903231058 | 69 | 360 | 0.0 | 3.0 | 0.00 | 0.01 | 0.01 | 61 | 979.7 |
| 20260903230558 | 69 | 360 | 0.0 | 3.0 | 0.00 | 0.01 | 0.01 | 61 | 979.6 |
| 20260903230059 | 69 | 360 | 0.0 | 3.0 | 0.00 | 0.01 | 0.01 | 60 | 979.5 |
| 20260903225558 | 69 | 229 | 1.0 | 2.0 | 0.00 | 0.01 | 0.01 | 60 | 979.6 |
| 20260903225102 | 69 | 229 | 0.0 | 1.0 | 0.00 | 0.01 | 0.01 | 59 | 979.7 |
| 20260903224558 | 69 | 229 | 0.0 | 1.0 | 0.00 | 0.01 | 0.01 | 59 | 979.8 |
| 20260903224102 | 69 | 229 | 0.0 | 2.0 | 0.00 | 0.01 | 0.01 | 59 | 979.7 |
| 20260903223600 | 69 | 229 | 0.0 | 2.0 | 0.00 | 0.01 | 0.01 | 59 | 979.8 |
| 20260903223059 | 69 | 229 | 0.0 | 3.0 | 0.00 | 0.01 | 0.01 | 59 | 979.7 |
| 20260903222557 | 69 | 229 | 1.0 | 4.0 | 0.00 | 0.01 | 0.01 | 59 | 979.7 |
| 20260903222101 | 69 | 227 | 2.0 | 4.0 | 0.00 | 0.01 | 0.01 | 59 | 979.6 |
| 20260903221557 | 69 | 223 | 2.0 | 4.0 | 0.00 | 0.01 | 0.01 | 58 | 979.6 |
| 20260903221056 | 69 | 45 | 0.0 | 2.0 | 0.00 | 0.01 | 0.01 | 58 | 979.6 |
| 20260903220559 | 69 | 38 | 1.0 | 6.0 | 0.00 | 0.01 | 0.01 | 58 | 979.3 |
| 20260903220058 | 69 | 19 | 1.0 | 10.0 | 0.00 | 0.01 | 0.01 | 59 | 978.7 |
| 20260903215556 | 69 | 33 | 4.0 | 11.0 | 0.00 | 0.01 | 0.01 | 59 | 978.0 |
| 20260903215056 | 69 | 55 | 4.0 | 11.0 | 0.00 | 0.01 | 0.01 | 59 | 977.7 |
| 20260903214609 | 69 | 57 | 4.0 | 10.0 | 0.00 | 0.01 | 0.01 | 59 | 977.3 |
| 20260903214058 | 69 | 88 | 1.0 | 13.0 | 0.00 | 0.01 | 0.01 | 60 | 977.2 |
| 20260903213555 | 69 | 175 | 2.0 | 13.0 | 0.00 | 0.01 | 0.01 | 60 | 977.0 |
| 20260903213056 | 69 | 80 | 2.0 | 9.0 | 0.00 | 0.01 | 0.01 | 60 | 977.1 |
| 20260903212558 | 69 | 96 | 2.0 | 9.0 | 0.00 | 0.01 | 0.01 | 60 | 976.9 |
| 20260903212059 | 69 | 68 | 3.0 | 13.0 | 0.00 | 0.01 | 0.01 | 60 | 976.9 |
| 20260903211606 | 69 | 78 | 5.0 | 12.0 | 0.00 | 0.01 | 0.01 | 60 | 977.0 |
| 20260903211055 | 69 | 87 | 3.0 | 11.0 | 0.00 | 0.01 | 0.01 | 60 | 977.0 |
| 20260903210555 | 69 | 91 | 4.0 | 11.0 | 0.00 | 0.01 | 0.01 | 60 | 976.9 |
| 20260903210056 | 69 | 82 | 4.0 | 14.0 | 0.00 | 0.01 | 0.01 | 61 | 976.8 |
| 20260903205553 | 68 | 131 | 6.0 | 14.0 | 0.00 | 0.01 | 0.01 | 61 | 976.9 |
| 20260903205053 | 68 | 64 | 4.0 | 14.0 | 0.00 | 0.01 | 0.01 | 61 | 977.0 |
| 20260903204559 | 68 | 89 | 6.0 | 14.0 | 0.00 | 0.01 | 0.01 | 61 | 977.1 |
| 20260903204052 | 68 | 123 | 4.0 | 12.0 | 0.01 | 0.01 | 0.01 | 61 | 977.4 |
| 20260903203552 | 68 | 113 | 4.0 | 11.0 | 0.01 | 0.01 | 0.01 | 62 | 977.7 |
| 20260903203051 | 68 | 133 | 4.0 | 11.0 | 0.01 | 0.01 | 0.01 | 62 | 977.8 |
| 20260903202551 | 68 | 140 | 3.0 | 11.0 | 0.01 | 0.01 | 0.01 | 62 | 977.7 |
| 20260903202051 | 68 | 84 | 6.0 | 13.0 | 0.01 | 0.01 | 0.01 | 62 | 977.5 |
| 20260903201559 | 68 | 98 | 6.0 | 13.0 | 0.01 | 0.01 | 0.01 | 62 | 977.3 |
| 20260903201052 | 69 | 94 | 7.0 | 10.0 | 0.01 | 0.01 | 0.01 | 63 | 977.7 |
| 20260903200547 | 69 | 93 | 5.0 | 11.0 | 0.01 | 0.01 | 0.01 | 62 | 978.4 |
| 20260903200056 | 69 | 95 | 4.0 | 11.0 | 0.01 | 0.01 | 0.01 | 63 | 979.1 |
| 20260903195544 | 69 | 114 | 1.0 | 7.0 | 0.01 | 0.01 | 0.01 | 63 | 979.4 |
| 20260903195044 | 69 | 99 | 1.0 | 6.0 | 0.01 | 0.01 | 0.01 | 62 | 979.4 |
| 20260903194544 | 69 | 91 | 1.0 | 8.0 | 0.01 | 0.01 | 0.01 | 62 | 979.6 |
| 20260903194042 | 69 | 100 | 2.0 | 8.0 | 0.00 | 0.00 | 0.00 | 62 | 979.9 |
| 20260903193541 | 69 | 94 | 0.0 | 3.0 | 0.00 | 0.00 | 0.00 | 62 | 980.1 |
| 20260903193040 | 69 | 115 | 1.0 | 4.0 | 0.00 | 0.00 | 0.00 | 62 | 980.5 |
| 20260903192539 | 70 | 98 | 1.0 | 6.0 | 0.00 | 0.00 | 0.00 | 61 | 980.7 |
| 20260903192039 | 70 | 96 | 1.0 | 6.0 | 0.00 | 0.00 | 0.00 | 60 | 980.8 |
| 20260903191537 | 70 | 134 | 2.0 | 6.0 | 0.00 | 0.00 | 0.00 | 59 | 980.9 |
| 20260903191037 | 70 | 134 | 1.0 | 6.0 | 0.00 | 0.00 | 0.00 | 58 | 980.9 |
| 20260903190536 | 70 | 82 | 1.0 | 6.0 | 0.00 | 0.00 | 0.00 | 58 | 980.9 |
| 20260903190036 | 69 | 130 | 0.0 | 2.0 | 0.00 | 0.00 | 0.00 | 58 | 981.1 |
| 20260903185536 | 69 | 130 | 0.0 | 2.0 | 0.00 | 0.00 | 0.00 | 59 | 981.0 |
| 20260903185038 | 69 | 121 | 0.0 | 2.0 | 0.00 | 0.00 | 0.00 | 59 | 981.1 |
| 20260903184535 | 69 | 97 | 0.0 | 2.0 | 0.00 | 0.00 | 0.00 | 59 | 981.1 |
| 20260903184040 | 69 | 97 | 0.0 | 2.0 | 0.00 | 0.00 | 0.00 | 58 | 981.2 |
| 20260903183534 | 69 | 96 | 0.0 | 2.0 | 0.00 | 0.00 | 0.00 | 58 | 981.3 |
| 20260903183035 | 69 | 96 | 0.0 | 2.0 | 0.00 | 0.00 | 0.00 | 58 | 981.3 |
| 20260903182538 | 69 | 138 | 0.0 | 1.0 | 0.00 | 0.00 | 0.00 | 58 | 981.2 |
| 20260903182034 | 69 | 138 | 0.0 | 0.0 | 0.00 | 0.00 | 0.00 | 58 | 981.2 |
| 20260903181533 | 69 | 138 | 0.0 | 1.0 | 0.00 | 0.00 | 0.00 | 58 | 981.4 |
| 20260903181032 | 70 | 138 | 0.0 | 2.0 | 0.00 | 0.00 | 0.00 | 57 | 981.6 |
| 20260903180538 | 70 | 138 | 0.0 | 2.0 | 0.00 | 0.00 | 0.00 | 57 | 981.6 |
| 20260903180039 | 70 | 138 | 0.0 | 3.0 | 0.00 | 0.00 | 0.00 | 57 | 981.8 |
| 20260903175530 | 70 | 138 | 0.0 | 3.0 | 0.00 | 0.00 | 0.00 | 56 | 981.8 |
| 20260903175030 | 70 | 142 | 0.0 | 4.0 | 0.00 | 0.00 | 0.00 | 56 | 982.0 |
| 20260903174530 | 70 | 123 | 0.0 | 6.0 | 0.00 | 0.00 | 0.00 | 56 | 982.1 |
| 20260903174030 | 70 | 126 | 1.0 | 6.0 | 0.00 | 0.00 | 0.00 | 56 | 982.2 |
| 20260903173529 | 70 | 139 | 0.0 | 5.0 | 0.00 | 0.00 | 0.00 | 56 | 982.4 |
| 20260903173029 | 70 | 84 | 2.0 | 5.0 | 0.00 | 0.00 | 0.00 | 55 | 982.4 |
| 20260903172534 | 70 | 148 | 0.0 | 5.0 | 0.00 | 0.00 | 0.00 | 56 | 982.4 |
| 20260903172030 | 70 | 127 | 0.0 | 5.0 | 0.00 | 0.00 | 0.00 | 56 | 982.6 |
| 20260903171528 | 70 | 131 | 2.0 | 6.0 | 0.00 | 0.00 | 0.00 | 56 | 982.8 |
| 20260903171028 | 70 | 130 | 2.0 | 4.0 | 0.00 | 0.00 | 0.00 | 56 | 982.8 |
| 20260903170527 | 70 | 140 | 2.0 | 4.0 | 0.00 | 0.00 | 0.00 | 57 | 982.9 |
| 20260903170030 | 69 | 111 | 0.0 | 4.0 | 0.00 | 0.00 | 0.00 | 57 | 982.9 |
| 20260903165527 | 69 | 96 | 1.0 | 7.0 | 0.00 | 0.00 | 0.00 | 57 | 983.0 |
| 20260903165026 | 69 | 134 | 2.0 | 7.0 | 0.00 | 0.00 | 0.00 | 57 | 983.0 |
| 20260903164526 | 69 | 128 | 1.0 | 5.0 | 0.00 | 0.00 | 0.00 | 57 | 983.2 |
| 20260903164026 | 69 | 101 | 3.0 | 6.0 | 0.00 | 0.00 | 0.00 | 57 | 983.1 |
| 20260903163527 | 69 | 123 | 1.0 | 7.0 | 0.00 | 0.00 | 0.00 | 57 | 983.1 |
| 20260903163026 | 69 | 102 | 2.0 | 7.0 | 0.00 | 0.00 | 0.00 | 58 | 983.2 |
| 20260903162528 | 69 | 101 | 0.0 | 4.0 | 0.00 | 0.00 | 0.00 | 57 | 983.2 |
| 20260903162030 | 69 | 117 | 2.0 | 4.0 | 0.00 | 0.00 | 0.00 | 57 | 983.2 |
| 20260903161526 | 69 | 138 | 1.0 | 3.0 | 0.00 | 0.00 | 0.00 | 57 | 983.0 |
| 20260903161025 | 69 | 152 | 0.0 | 3.0 | 0.00 | 0.00 | 0.00 | 58 | 983.3 |
| 20260903160527 | 69 | 138 | 0.0 | 3.0 | 0.00 | 0.00 | 0.00 | 57 | 983.1 |
| 20260903160025 | 69 | 138 | 1.0 | 4.0 | 0.00 | 0.00 | 0.00 | 57 | 983.1 |
| 20260903155523 | 69 | 146 | 0.0 | 7.0 | 0.00 | 0.00 | 0.00 | 57 | 983.1 |
| 20260903155023 | 69 | 129 | 2.0 | 7.0 | 0.00 | 0.00 | 0.00 | 57 | 983.0 |
| 20260903154526 | 69 | 151 | 1.0 | 7.0 | 0.00 | 0.00 | 0.00 | 58 | 983.1 |
| 20260903154022 | 69 | 132 | 2.0 | 7.0 | 0.00 | 0.00 | 0.00 | 58 | 982.8 |
| 20260903153521 | 69 | 86 | 2.0 | 8.0 | 0.00 | 0.00 | 0.00 | 59 | 982.9 |
| 20260903153021 | 68 | 96 | 3.0 | 8.0 | 0.00 | 0.00 | 0.00 | 58 | 982.9 |
| 20260903152520 | 68 | 96 | 1.0 | 6.0 | 0.00 | 0.00 | 0.00 | 59 | 982.9 |
| 20260903152020 | 68 | 73 | 1.0 | 6.0 | 0.00 | 0.00 | 0.00 | 61 | 983.0 |
| 20260903151517 | 68 | 126 | 0.0 | 4.0 | 0.00 | 0.00 | 0.00 | 61 | 983.0 |
| 20260903151016 | 67 | 106 | 0.0 | 5.0 | 0.00 | 0.00 | 0.00 | 62 | 983.2 |
| 20260903150515 | 67 | 99 | 0.0 | 4.0 | 0.00 | 0.00 | 0.00 | 63 | 983.1 |
| 20260903150014 | 66 | 123 | 0.0 | 4.0 | 0.00 | 0.00 | 0.00 | 64 | 982.9 |
| 20260903145515 | 66 | 72 | 1.0 | 4.0 | 0.00 | 0.00 | 0.00 | 64 | 982.6 |
| 20260903145011 | 65 | 12 | 0.0 | 4.0 | 0.00 | 0.00 | 0.00 | 65 | 982.4 |
| 20260903144517 | 65 | 73 | 2.0 | 6.0 | 0.00 | 0.00 | 0.00 | 66 | 982.0 |
| 20260903144008 | 64 | 116 | 1.0 | 6.0 | 0.00 | 0.00 | 0.00 | 67 | 982.0 |
| 20260903143506 | 64 | 77 | 0.0 | 6.0 | 0.00 | 0.00 | 0.00 | 67 | 982.0 |
| 20260903143008 | 64 | 50 | 1.0 | 6.0 | 0.00 | 0.00 | 0.00 | 67 | 982.2 |
| 20260903142506 | 64 | 98 | 0.0 | 3.0 | 0.00 | 0.00 | 0.00 | 68 | 982.4 |
| 20260903142003 | 63 | 63 | 0.0 | 3.0 | 0.00 | 0.00 | 0.00 | 68 | 982.4 |
| 20260903141502 | 63 | 101 | 1.0 | 3.0 | 0.00 | 0.00 | 0.00 | 68 | 982.6 |
| 20260903141002 | 63 | 122 | 0.0 | 2.0 | 0.00 | 0.00 | 0.00 | 69 | 982.6 |
| 20260903140602 | 63 | 128 | 0.0 | 3.0 | 0.00 | 0.00 | 0.00 | 69 | 982.7 |
| 20260903140100 | 62 | 105 | 1.0 | 4.0 | 0.00 | 0.00 | 0.00 | 69 | 982.9 |
| 20260903135558 | 62 | 111 | 1.0 | 6.0 | 0.00 | 0.00 | 0.00 | 69 | 982.8 |
| 20260903135057 | 62 | 89 | 1.0 | 6.0 | 0.00 | 0.00 | 0.00 | 70 | 982.9 |
| 20260903134603 | 61 | 130 | 1.0 | 4.0 | 0.00 | 0.00 | 0.00 | 70 | 982.9 |
| 20260903134055 | 61 | 163 | 1.0 | 4.0 | 0.00 | 0.00 | 0.00 | 70 | 982.8 |
| 20260903133555 | 60 | 94 | 0.0 | 4.0 | 0.00 | 0.00 | 0.00 | 71 | 983.0 |
| 20260903133054 | 60 | 94 | 0.0 | 4.0 | 0.00 | 0.00 | 0.00 | 70 | 983.0 |
| 20260903132553 | 60 | 360 | 0.0 | 3.0 | 0.00 | 0.00 | 0.00 | 71 | 982.9 |
| 20260903132053 | 59 | 124 | 0.0 | 1.0 | 0.00 | 0.00 | 0.00 | 71 | 982.8 |
| 20260903131554 | 59 | 124 | 0.0 | 1.0 | 0.00 | 0.00 | 0.00 | 71 | 982.8 |
| 20260903131052 | 59 | 124 | 0.0 | 1.0 | 0.00 | 0.00 | 0.00 | 71 | 982.9 |
| 20260903130551 | 58 | 127 | 0.0 | 2.0 | 0.00 | 0.00 | 0.00 | 71 | 982.9 |
| 20260903130052 | 58 | 127 | 0.0 | 2.0 | 0.00 | 0.00 | 0.00 | 71 | 982.9 |
| 20260903125552 | 57 | 119 | 0.0 | 2.0 | 0.00 | 0.00 | 0.00 | 71 | 982.9 |
| 20260903125052 | 57 | 140 | 0.0 | 1.0 | 0.00 | 0.00 | 0.00 | 71 | 982.8 |
| 20260903124552 | 56 | 140 | 0.0 | 1.0 | 0.00 | 0.00 | 0.00 | 71 | 982.8 |
| 20260903124051 | 56 | 140 | 0.0 | 1.0 | 0.00 | 0.00 | 0.00 | 71 | 982.8 |
| 20260903123551 | 56 | 140 | 0.0 | 1.0 | 0.00 | 0.00 | 0.00 | 71 | 982.8 |
| 20260903123051 | 55 | 144 | 0.0 | 0.0 | 0.00 | 0.00 | 0.00 | 71 | 983.0 |
| 20260903122554 | 55 | 144 | 0.0 | 0.0 | 0.00 | 0.00 | 0.00 | 71 | 983.1 |
| 20260903122051 | 55 | 144 | 0.0 | 0.0 | 0.00 | 0.00 | 0.00 | 71 | 983.0 |
| 20260903121551 | 55 | 144 | 0.0 | 0.0 | 0.00 | 0.00 | 0.00 | 71 | 983.1 |
| 20260903121054 | 55 | 144 | 0.0 | 0.0 | 0.00 | 0.00 | 0.00 | 71 | 982.9 |
| 20260903120550 | 55 | 144 | 0.0 | 1.0 | 0.00 | 0.00 | 0.00 | 71 | 982.9 |
| 20260903120052 | 55 | 144 | 0.0 | 1.0 | 0.00 | 0.00 | 0.00 | 71 | 982.9 |
| 20260903115550 | 54 | 144 | 0.0 | 0.0 | 0.00 | 0.00 | 0.00 | 71 | 982.7 |
| 20260903115049 | 54 | 144 | 0.0 | 0.0 | 0.00 | 0.00 | 0.00 | 71 | 982.6 |
| 20260903114550 | 54 | 144 | 0.0 | 0.0 | 0.00 | 0.00 | 0.00 | 71 | 982.5 |
| 20260903114049 | 54 | 144 | 0.0 | 0.0 | 0.00 | 0.00 | 0.00 | 71 | 982.4 |
| 20260903113549 | 54 | 144 | 0.0 | 0.0 | 0.00 | 0.00 | 0.00 | 71 | 982.4 |
| 20260903113052 | 54 | 144 | 0.0 | 0.0 | 0.00 | 0.00 | 0.00 | 71 | 982.7 |
| 20260903112548 | 54 | 144 | 0.0 | 0.0 | 0.00 | 0.00 | 0.00 | 71 | 982.6 |
| 20260903112048 | 54 | 144 | 0.0 | 0.0 | 0.00 | 0.00 | 0.00 | 71 | 982.7 |
| 20260903111553 | 54 | 144 | 0.0 | 0.0 | 0.00 | 0.00 | 0.00 | 71 | 982.6 |
| 20260903111050 | 54 | 144 | 0.0 | 0.0 | 0.00 | 0.00 | 0.00 | 70 | 982.6 |
| 20260903110547 | 54 | 144 | 0.0 | 0.0 | 0.00 | 0.00 | 0.00 | 70 | 982.6 |
| 20260903110046 | 54 | 144 | 0.0 | 1.0 | 0.00 | 0.00 | 0.00 | 70 | 982.6 |
| 20260903105546 | 54 | 144 | 0.0 | 1.0 | 0.00 | 0.00 | 0.00 | 70 | 982.6 |
| 20260903105046 | 54 | 144 | 0.0 | 0.0 | 0.00 | 0.00 | 0.00 | 70 | 982.7 |
| 20260903104606 | 54 | 144 | 0.0 | 0.0 | 0.00 | 0.00 | 0.00 | 70 | 982.7 |
| 20260903104044 | 54 | 144 | 0.0 | 0.0 | 0.00 | 0.00 | 0.00 | 70 | 982.8 |
| 20260903103546 | 54 | 144 | 0.0 | 1.0 | 0.00 | 0.00 | 0.00 | 70 | 982.8 |
| 20260903103057 | 54 | 144 | 0.0 | 1.0 | 0.00 | 0.00 | 0.00 | 70 | 983.0 |
| 20260903102545 | 54 | 144 | 0.0 | 0.0 | 0.00 | 0.00 | 0.00 | 70 | 982.9 |
| 20260903102044 | 54 | 144 | 0.0 | 0.0 | 0.00 | 0.00 | 0.00 | 69 | 983.1 |
| 20260903101549 | 55 | 144 | 0.0 | 0.0 | 0.00 | 0.00 | 0.00 | 70 | 983.0 |
| 20260903101042 | 55 | 144 | 0.0 | 0.0 | 0.00 | 0.00 | 0.00 | 70 | 983.1 |
| 20260903100542 | 55 | 144 | 0.0 | 0.0 | 0.00 | 0.00 | 0.00 | 70 | 983.1 |
| 20260903100042 | 55 | 144 | 0.0 | 1.0 | 0.00 | 0.00 | 0.00 | 69 | 983.2 |
| 20260903095540 | 55 | 144 | 0.0 | 1.0 | 0.00 | 0.00 | 0.00 | 69 | 983.3 |
| 20260903095038 | 56 | 144 | 0.0 | 0.0 | 0.00 | 0.00 | 0.00 | 70 | 983.2 |
| 20260903094545 | 56 | 144 | 0.0 | 0.0 | 0.00 | 0.00 | 0.00 | 70 | 983.2 |
| 20260903094042 | 56 | 144 | 0.0 | 0.0 | 0.00 | 0.00 | 0.00 | 70 | 983.3 |
| 20260903093538 | 56 | 144 | 0.0 | 1.0 | 0.00 | 0.00 | 0.00 | 70 | 983.2 |
| 20260903093047 | 56 | 144 | 0.0 | 1.0 | 0.00 | 0.00 | 0.00 | 70 | 983.3 |
| 20260903092537 | 56 | 144 | 0.0 | 0.0 | 0.00 | 0.00 | 0.00 | 70 | 983.3 |
| 20260903092040 | 56 | 144 | 0.0 | 0.0 | 0.00 | 0.00 | 0.00 | 70 | 983.2 |
| 20260903091540 | 56 | 144 | 0.0 | 0.0 | 0.00 | 0.00 | 0.00 | 69 | 983.2 |
| 20260903091036 | 57 | 144 | 0.0 | 0.0 | 0.00 | 0.00 | 0.00 | 69 | 983.2 |
| 20260903090536 | 57 | 144 | 0.0 | 1.0 | 0.00 | 0.00 | 0.00 | 69 | 983.2 |
| 20260903090038 | 57 | 144 | 0.0 | 1.0 | 0.00 | 0.00 | 0.00 | 69 | 983.1 |
| 20260903085535 | 57 | 144 | 0.0 | 1.0 | 0.00 | 0.00 | 0.00 | 70 | 983.3 |
| 20260903085035 | 57 | 144 | 0.0 | 1.0 | 0.00 | 0.00 | 0.00 | 70 | 983.2 |
| 20260903084544 | 56 | 137 | 0.0 | 1.0 | 0.00 | 0.00 | 0.00 | 69 | 983.2 |
| 20260903084035 | 56 | 132 | 0.0 | 1.0 | 0.00 | 0.00 | 0.00 | 69 | 983.2 |
| 20260903083535 | 56 | 132 | 0.0 | 0.0 | 0.00 | 0.00 | 0.00 | 69 | 983.1 |
| 20260903083034 | 56 | 132 | 0.0 | 0.0 | 0.00 | 0.00 | 0.00 | 69 | 983.1 |
| 20260903082534 | 57 | 132 | 0.0 | 0.0 | 0.00 | 0.00 | 0.00 | 69 | 983.0 |
| 20260903082034 | 56 | 132 | 0.0 | 1.0 | 0.00 | 0.00 | 0.00 | 69 | 983.1 |
| 20260903081533 | 56 | 132 | 0.0 | 1.0 | 0.00 | 0.00 | 0.00 | 69 | 982.9 |
| 20260903081032 | 56 | 108 | 0.0 | 0.0 | 0.00 | 0.00 | 0.00 | 68 | 982.8 |
| 20260903080537 | 56 | 108 | 0.0 | 0.0 | 0.00 | 0.00 | 0.00 | 68 | 982.7 |
| 20260903080032 | 56 | 108 | 0.0 | 0.0 | 0.00 | 0.00 | 0.00 | 67 | 982.7 |
| 20260903075531 | 56 | 108 | 0.0 | 0.0 | 0.00 | 0.00 | 0.00 | 67 | 982.7 |
| 20260903075030 | 56 | 108 | 0.0 | 0.0 | 0.00 | 0.00 | 0.00 | 67 | 982.7 |
| 20260903074530 | 56 | 108 | 0.0 | 0.0 | 0.00 | 0.00 | 0.00 | 67 | 982.7 |
| 20260903074034 | 57 | 108 | 0.0 | 0.0 | 0.00 | 0.00 | 0.00 | 66 | 982.8 |
| 20260903073529 | 57 | 108 | 0.0 | 0.0 | 0.00 | 0.00 | 0.00 | 66 | 982.9 |
| 20260903073031 | 57 | 108 | 0.0 | 0.0 | 0.00 | 0.00 | 0.00 | 66 | 983.0 |
| 20260903072526 | 57 | 108 | 0.0 | 0.0 | 0.00 | 0.00 | 0.00 | 66 | 983.1 |
| 20260903072030 | 57 | 108 | 0.0 | 0.0 | 0.00 | 0.00 | 0.00 | 66 | 983.1 |
| 20260903071526 | 57 | 44 | 0.0 | 0.0 | 0.00 | 0.00 | 0.00 | 66 | 983.2 |
| 20260903071027 | 57 | 44 | 0.0 | 0.0 | 0.00 | 0.00 | 0.00 | 66 | 983.3 |
| 20260903070529 | 57 | 44 | 0.0 | 0.0 | 0.00 | 0.00 | 0.00 | 65 | 983.2 |
| 20260903070028 | 57 | 44 | 0.0 | 0.0 | 0.00 | 0.00 | 0.00 | 65 | 983.2 |
| 20260903065524 | 57 | 44 | 0.0 | 0.0 | 0.00 | 0.00 | 0.00 | 65 | 983.2 |
| 20260903065023 | 57 | 44 | 0.0 | 0.0 | 0.00 | 0.00 | 0.00 | 64 | 983.2 |
| 20260903064523 | 57 | 44 | 0.0 | 0.0 | 0.00 | 0.00 | 0.00 | 63 | 983.2 |
| 20260903064022 | 58 | 44 | 0.0 | 0.0 | 0.00 | 0.00 | 0.00 | 62 | 983.1 |
| 20260903063522 | 58 | 44 | 0.0 | 0.0 | 0.00 | 0.00 | 0.00 | 62 | 983.2 |
| 20260903063020 | 58 | 44 | 0.0 | 0.0 | 0.00 | 0.00 | 0.00 | 62 | 983.4 |
| 20260903062521 | 58 | 44 | 0.0 | 0.0 | 0.00 | 0.00 | 0.00 | 62 | 983.3 |
| 20260903062021 | 58 | 44 | 0.0 | 0.0 | 0.00 | 0.00 | 0.00 | 62 | 983.2 |
| 20260903061521 | 58 | 44 | 0.0 | 0.0 | 0.00 | 0.00 | 0.00 | 62 | 983.3 |
| 20260903061018 | 59 | 44 | 0.0 | 0.0 | 0.00 | 0.00 | 0.00 | 61 | 983.3 |
| 20260903060517 | 59 | 44 | 0.0 | 0.0 | 0.00 | 0.00 | 0.00 | 61 | 983.3 |
| 20260903060020 | 59 | 44 | 0.0 | 0.0 | 0.00 | 0.00 | 0.00 | 61 | 983.3 |
| 20260903055518 | 59 | 44 | 0.0 | 0.0 | 0.00 | 0.00 | 0.00 | 61 | 983.3 |
| 20260903055015 | 59 | 44 | 0.0 | 0.0 | 0.00 | 0.00 | 0.00 | 60 | 983.2 |
| 20260903054516 | 59 | 44 | 0.0 | 0.0 | 0.00 | 0.00 | 0.00 | 60 | 983.3 |
| 20260903054015 | 59 | 44 | 0.0 | 0.0 | 0.00 | 0.00 | 0.00 | 60 | 983.3 |
| 20260903053515 | 59 | 44 | 0.0 | 0.0 | 0.00 | 0.00 | 0.00 | 60 | 983.3 |
| 20260903053013 | 60 | 44 | 0.0 | 0.0 | 0.00 | 0.00 | 0.00 | 60 | 983.3 |
| 20260903052513 | 60 | 44 | 0.0 | 0.0 | 0.00 | 0.00 | 0.00 | 60 | 983.3 |
| 20260903052013 | 60 | 44 | 0.0 | 0.0 | 0.00 | 0.00 | 0.00 | 60 | 983.4 |
| 20260903051512 | 60 | 44 | 0.0 | 0.0 | 0.00 | 0.00 | 0.00 | 60 | 983.4 |
| 20260903051011 | 60 | 44 | 0.0 | 0.0 | 0.00 | 0.00 | 0.00 | 59 | 983.4 |
| 20260903050511 | 60 | 44 | 0.0 | 0.0 | 0.00 | 0.00 | 0.00 | 59 | 983.5 |
| 20260903050030 | 60 | 44 | 0.0 | 0.0 | 0.00 | 0.00 | 0.00 | 59 | 983.5 |
| 20260903045509 | 60 | 44 | 0.0 | 0.0 | 0.00 | 0.00 | 0.00 | 59 | 983.6 |
| 20260903045008 | 61 | 44 | 0.0 | 0.0 | 0.00 | 0.00 | 0.00 | 59 | 983.6 |
| 20260903044508 | 61 | 44 | 0.0 | 0.0 | 0.00 | 0.00 | 0.00 | 59 | 983.6 |
| 20260903044008 | 61 | 44 | 0.0 | 0.0 | 0.00 | 0.00 | 0.00 | 58 | 983.6 |
| 20260903043508 | 61 | 44 | 0.0 | 0.0 | 0.00 | 0.00 | 0.00 | 58 | 983.6 |
| 20260903043108 | 61 | 44 | 0.0 | 0.0 | 0.00 | 0.00 | 0.00 | 58 | 983.7 |
| 20260903042508 | 62 | 44 | 0.0 | 0.0 | 0.00 | 0.00 | 0.00 | 58 | 983.7 |
| 20260903042008 | 62 | 44 | 0.0 | 0.0 | 0.00 | 0.00 | 0.00 | 58 | 983.7 |
| 20260903041515 | 62 | 44 | 0.0 | 0.0 | 0.00 | 0.00 | 0.00 | 58 | 983.7 |
| 20260903041007 | 62 | 44 | 0.0 | 0.0 | 0.00 | 0.00 | 0.00 | 58 | 983.7 |
| 20260903040507 | 62 | 44 | 0.0 | 0.0 | 0.00 | 0.00 | 0.00 | 58 | 983.7 |
| 20260903040009 | 63 | 38 | 0.0 | 0.0 | 0.00 | 0.00 | 0.00 | 58 | 983.7 |
| 20260903035508 | 63 | 38 | 0.0 | 0.0 | 0.00 | 0.00 | 0.00 | 57 | 983.7 |
| 20260903035006 | 63 | 37 | 0.0 | 0.0 | 0.00 | 0.00 | 0.00 | 57 | 983.7 |
| 20260903034508 | 63 | 37 | 0.0 | 2.0 | 0.00 | 0.00 | 0.00 | 57 | 983.7 |
| 20260903034007 | 63 | 37 | 0.0 | 2.0 | 0.00 | 0.00 | 0.00 | 57 | 983.7 |
| 20260903033505 | 63 | 36 | 0.0 | 2.0 | 0.00 | 0.00 | 0.00 | 57 | 983.6 |
| 20260903033006 | 63 | 28 | 0.0 | 2.0 | 0.00 | 0.00 | 0.00 | 57 | 983.6 |